Home > Weather > Kirkenes > Past weeks

Flag for Norway Past Weather in Kirkenes, Norway — Yesterday and Last 2 Weeks

Now
78 °F

Pleasantly warm.


Feels Like: 78 °F
Forecast: 55 / 73 °F
Wind: 7 mph from Southwest

Location: Kirkenes Lufthavn

Current Time: Jul 23, 2016 at 11:27:22 AM

Latest Report: Jul 23, 2016 at 10:00 AM


Visibility: N/A

Pressure: 30.14 "Hg

Humidity: 32%

Dew Point: 46 °F

Location of KirkenesLocation

Past Weather in Kirkenes — Graph

°F

Kirkenes Temperature Yesterday

Maximum temperature yesterday: 64 °F (at 5:00 PM)
Minimum temperature yesterday: 53 °F (at 2:00 AM)
Average temperature yesterday: 59 °F

High & Low Weather Summary for the Past Weeks

 TemperatureHumidityPressure
High78 °F (Jul 23, 10:00 AM)98% (Jul 9, 2:00 AM)30.24 "Hg (Jul 9, 2:00 AM)
Low50 °F (Jul 20, 3:00 AM)32% (Jul 21, 1:00 PM)29.41 "Hg (Jul 10, 1:00 AM)
Average58 °F78%29.76 "Hg
* Reported Jul 8 10:00 AM — Jul 23 10:00 AM, Kirkenes, Weather by CustomWeather, © 2016

Note: Actual official high and low records may vary slightly from our data, if they occured in-between our weather recording intervals... More about our weather records

Advertising

Kirkenes Weather History for the Previous 24 Hours

Scroll right to see more
 ConditionsComfort  
Time TempWeatherWind HumidityBarometerVisibility
10:00 AM
Sat, Jul 23
78 °FPleasantly warm.7 mph32%30.14 "HgN/A
9:00 AM77 °FMild.7 mph36%30.14 "HgN/A
8:00 AM75 °FMild.6 mph42%30.14 "HgN/A
7:00 AM71 °FMild.2 mph57%30.15 "HgN/A
6:00 AM68 °FMild.1 mph66%30.15 "HgN/A
5:00 AM62 °FCool.No wind84%30.16 "HgN/A
4:00 AM59 °FCool.No wind88%30.16 "HgN/A
3:00 AM57 °FCool.1 mph91%30.16 "HgN/A
2:00 AM57 °FCool.2 mph92%30.17 "HgN/A
1:00 AM57 °FCool.No wind92%30.18 "HgN/A
12:00 AM57 °FCool.No wind90%30.18 "HgN/A
11:00 PM
Fri, Jul 22
59 °FCool.No wind88%30.18 "HgN/A
10:00 PM60 °FCool.No wind84%30.17 "HgN/A
9:00 PM61 °FCool.1 mph80%30.17 "HgN/A
8:00 PM63 °FMild.2 mph74%30.17 "HgN/A
7:00 PM64 °FMild.3 mph73%30.18 "HgN/A
6:00 PM64 °FMild.5 mph72%30.18 "HgN/A
5:00 PM64 °FMild.5 mph70%30.19 "HgN/A
4:00 PM64 °FMild.5 mph71%30.19 "HgN/A
3:00 PM63 °FMild.6 mph71%30.20 "HgN/A
2:00 PM64 °FMild.6 mph69%30.21 "HgN/A
1:00 PM64 °FMild.5 mph67%30.22 "HgN/A
12:00 PM63 °FMild.5 mph68%30.23 "HgN/A
11:00 AM62 °FMild.5 mph69%N/AN/A
Weather by CustomWeather, © 2016

See weather overviewHow to use our weather pages